Regional Weather Roundup
Issued by NWS

Home | Current Version | Previous Version | Graphics & Text | Print | Product List | Glossary Off
Versions: 1 2 3 4 5 6 7 8 9 10 11 12 13 14 15 16 17 18 19 20 21 22 23 24 25 26 27 28 29 30 31 32 33 34 35 36 37 38 39 40 41 42 43 44 45 46 47 48 49 50

000
ASUS43 KTOP 170308
RWRKS

WEATHER ROUNDUP FOR KANSAS
NATIONAL WEATHER SERVICE GOODLAND KS
1000 PM CDT WED AUG 16 2017

NOTE:  "FAIR" INDICATES FEW OR NO CLOUDS BELOW 12,000 FEET WITH NO
SIGNIFICANT WEATHER AND/OR OBSTRUCTIONS TO VISIBILITY.

KSZ001>006-013>018-027>032-041>047-170400-
NORTHWEST KANSAS

CITY           SKY/WX    TMP DP  RH WIND       PRES   REMARKS
GOODLAND       CLEAR     61  58  90 N6        30.06R
HAYS           CLEAR     70  61  73 N9        29.96R
HILL CITY      CLEAR     66  63  90 N8        29.97R
RUSSELL        CLEAR     70  61  73 N12       29.93R
$$

KSZ061>065-074>080-084>089-170400-
SOUTHWEST KANSAS

CITY           SKY/WX    TMP DP  RH WIND       PRES   REMARKS
DODGE CITY     CLEAR     69  58  67 NW6       29.97R
ELKHART          N/A     73  57  57 N3          N/A
GARDEN CITY    CLEAR     68  54  60 N10       29.99R
GREAT BEND     CLEAR     73  63  70 N10G17    29.94R
LIBERAL        CLEAR     70  63  78 MISG      30.01R
PRATT          CLEAR     74  61  63 CALM      29.94R
$$

KSZ066>073-081>083-090>101-170400-
SOUTHEAST KANSAS

CITY           SKY/WX    TMP DP  RH WIND       PRES   REMARKS
CHANUTE        LGT RAIN  71  69  93 SE10      29.88S
COFFEYVILLE    LGT RAIN  70  67  90 S13       29.92R
HUTCHINSON     CLOUDY    69  66  90 CALM      29.90R
MEDICINE LODGE   N/A     75  64  68 E5        29.92R
NEWTON         CLOUDY    71  67  87 CALM      29.92R
PARSONS        LGT RAIN  70  67  90 SE8       29.91R
WICHITA INTL   CLOUDY    75  68  78 N3        29.90R
WICHITA JABRA  CLOUDY    72  71  97 CALM      29.91R
WICHITA MCCONL CLOUDY    76  70  81 CALM      29.91R
WINFIELD       CLOUDY    73  73 100 CALM      29.92R
$$

KSZ007>012-019>026-033>040-048>060-102>105-170400-
NORTHEAST KANSAS

CITY           SKY/WX    TMP DP  RH WIND       PRES   REMARKS
CONCORDIA      CLEAR     69  64  84 NW9       29.92R
EMPORIA        CLOUDY    73  70  90 S5        29.89R
LAWRENCE       CLOUDY    73  72  96 SE5       29.85R
MANHATTAN      CLOUDY    72  69  90 CALM      29.86R
MARYSVILLE     CLOUDY    72  64  78 W6        29.86R
OLATHE IND     CLOUDY    69  68  96 S9        29.87R
OLATHE EXE     CLOUDY    68  68 100 S8        29.87R
SALINA         CLEAR     75  64  68 NW6       29.89R
TOPEKA BILLARD CLOUDY    74  70  87 SW3       29.85R
TOPEKA FORBES  CLOUDY    74  70  87 SW6       29.86S
$$




USA.gov is the U.S. government's official web portal to all federal, state and local government web resources and services.